Regional Weather Roundup
Issued by NWS Goodland, KS

Home | Current Version | Previous Version | Graphics & Text | Print | Product List | Glossary On
Versions: 1 2 3 4 5 6 7 8 9 10 11 12 13 14 15 16 17 18 19 20 21 22 23 24 25 26 27 28 29 30 31 32 33 34 35 36 37 38 39 40 41 42 43 44 45 46 47 48 49 50
000
ASUS43 KGLD 240708
RWRGLD

GOODLAND FORECAST AREA HOURLY WEATHER ROUNDUP
NATIONAL WEATHER SERVICE GOODLAND KS
1200 AM MST FRI FEB 24 2017

...OFFICIAL OBSERVATIONS...

CITY           SKY/WX    TMP DP  RH WIND       PRES   REMARKS
GOODLAND KS    CLOUDY    23  20  88 NW22G31   29.77R WCI   8
HILL CITY KS   CLOUDY    30  25  81 N13       29.76S WCI  20
IMPERIAL NEB   LGT SNOW  23  20  88 N17       29.82S FOG     WCI   9
MCCOOK NEB     CLOUDY    27  23  85 N16       29.78S WCI  15
AKRON CO       LGT SNOW  19  17  92 N13       29.82R FOG     WCI   6
BURLINGTON CO  CLOUDY    23  18  81 N21G30    29.78S WCI   8
LIMON CO       FLURRIES  18  15  88 NW18      29.79R WCI   2
$$

...UNOFFICIAL OBSERVATIONS...

CITY           SKY/WX    TMP DP  RH WIND       PRES   REMARKS
LENORA KS        N/A     28  32 100 NE12        N/A  WCI  18
NORTON KS      CLOUDY    28  21  74 NW17      29.75  WCI  16
SHARON SPRINGS   N/A     25  20  81 NW20G28     N/A  WCI  11
TRENTON NEB      N/A     23  32 100 CALM        N/A
KIT CARSON CO    N/A     20  13  75 MISG        N/A
YUMA CO        FLURRIES  21  19  93 NW6       29.82S
$$




USA.gov is the U.S. government's official web portal to all federal, state and local government web resources and services.